Temperature
21 21 20 19 19 19 20 22 23 23 23 23 24 24 24 24 23 21 20 21 22 21 21 20 21 21 21 20 20 20 20 19 19 19 19 19 19 19 19 19 19 19 19 19 19 19 19 19 19
21 21 20 19 19 20 21 22 23 23 23 23 23 24 24 22 20 19 20 21 22 22 21 21 21 21 20 20 20 20 19 19 19 19 19 19 19 19 19 19 19 19 19 19 19 19 19 19 19
21 20 19 18 20 21 22 23 23 24 22 22 23 23 23 21 20 20 21 22 22 21 21 21 21 20 20 20 20 20 19 19 19 19 19 19 19 19 19 19 19 19 19 19 19 19 19 19 19
21 20 20 19 20 23 24 24 24 23 21 21 21 22 23 22 21 21 21 22 22 21 21 21 20 20 20 20 20 20 19 19 19 19 19 19 19 19 19 19 18 18 18 19 19 19 19 19 19
21 20 19 19 21 24 26 26 24 23 21 20 21 21 22 22 22 22 22 22 22 21 21 21 20 20 20 20 20 20 19 19 19 19 19 19 19 19 19 19 18 18 18 18 18 19 19 19 19
21 20 19 20 23 26 26 25 23 21 20 20 20 20 21 21 22 21 22 22 22 21 21 21 20 20 20 20 20 20 19 19 19 19 19 19 19 19 19 19 18 18 18 18 18 18 19 19 19
21 20 20 22 23 24 25 23 21 20 19 19 19 19 20 20 20 21 21 21 21 21 21 21 20 20 20 20 20 20 19 19 19 19 19 19 18 18 18 18 18 18 18 18 18 18 18 19 19
23 20 21 22 24 24 23 21 20 19 18 19 20 19 20 20 20 20 21 21 21 21 21 20 20 20 20 20 19 19 19 19 19 19 18 18 18 18 18 18 18 18 18 18 18 18 18 18 18
24 20 20 22 24 24 23 21 19 19 19 19 20 21 21 20 20 20 20 20 20 20 20 20 20 19 19 19 19 19 19 19 18 18 18 18 18 18 18 18 18 18 18 18 18 18 18 18 18
24 20 22 24 25 24 24 21 20 20 19 19 20 21 21 20 20 20 20 20 20 20 19 19 19 19 19 19 19 18 18 18 18 18 18 18 18 18 18 18 18 18 18 18 18 18 18 18 18
24 22 23 25 25 25 23 21 20 20 19 19 20 21 20 20 20 20 20 20 20 19 19 19 19 19 19 19 18 18 18 18 18 18 18 18 18 18 18 17 17 17 17 18 18 18 18 18 18
25 25 26 25 24 24 22 21 20 19 19 21 21 21 21 20 20 20 20 20 19 19 19 19 19 19 18 18 18 18 18 18 18 18 18 18 18 17 17 17 17 17 17 17 17 17 17 17 17
25 25 25 24 23 23 22 20 19 19 20 20 20 20 20 20 20 20 20 20 20 19 19 19 19 19 18 18 18 18 18 18 18 17 17 17 17 17 17 17 17 17 17 17 17 17 17 17 17
26 25 25 24 23 22 21 20 19 18 19 19 19 19 19 20 20 20 20 20 20 20 19 19 19 19 18 18 18 18 18 18 17 17 17 17 17 17 17 17 16 16 16 16 16 16 16 16 16
26 24 24 23 23 21 21 20 19 18 19 19 19 19 19 20 20 20 20 20 20 20 19 19 19 18 18 18 18 18 18 17 17 17 17 17 16 16 16 16 16 16 16 16 16 16 16 16 16
24 23 22 22 22 22 21 19 18 18 18 18 18 18 18 19 20 20 19 20 19 19 19 19 18 18 18 18 18 18 17 17 17 17 16 16 16 16 16 15 15 15 15 15 15 16 16 16 16
22 22 22 22 22 22 20 19 18 18 18 18 18 18 18 18 19 19 19 19 19 19 19 19 18 18 18 18 17 17 17 17 16 16 16 16 16 15 15 15 15 15 15 15 15 15 15 15 15
22 22 22 22 22 21 20 19 19 19 18 17 17 18 18 18 19 19 19 19 19 19 19 19 18 18 18 18 17 17 17 16 16 16 16 16 15 15 15 15 14 14 14 14 14 14 14 15 15
24 23 23 22 22 21 20 19 19 18 18 17 18 18 18 18 18 18 18 18 18 18 18 18 18 18 18 18 17 17 17 16 16 16 15 15 15 15 15 14 14 14 14 14 14 14 14 14 14
25 23 22 22 22 21 20 19 19 18 18 18 18 18 18 18 18 18 18 18 18 18 18 18 18 18 18 18 17 17 16 16 16 15 15 15 15 15 14 14 14 14 14 13 13 13 13 14 14
24 23 22 22 21 20 20 19 19 19 19 19 19 19 19 19 18 18 18 18 18 19 19 19 19 18 18 18 17 17 16 16 16 15 15 15 15 14 14 14 14 14 13 13 13 13 13 13 13
23 24 24 23 20 18 19 18 19 19 18 18 18 19 19 19 19 19 19 19 19 19 19 19 19 19 18 18 17 17 16 16 16 15 15 15 14 14 14 14 13 13 13 13 13 13 13 13 13
24 24 23 21 19 18 18 18 18 19 18 18 18 19 19 19 19 19 19 19 19 19 19 19 19 19 18 18 17 17 16 16 16 15 15 15 14 14 14 13 13 13 13 13 13 13 12 12 12
24 22 20 17 17 18 18 18 18 18 19 19 19 20 20 20 20 20 20 20 20 20 20 19 19 19 18 18 17 17 17 16 16 15 15 15 14 14 14 13 13 13 13 13 13 12 12 12 12
24 21 20 19 17 18 18 19 18 19 20 20 20 20 21 21 20 20 20 20 20 20 20 20 19 19 18 18 18 17 17 16 16 15 15 14 14 14 13 13 13 13 13 12 12 12 12 12 12
24 21 20 20 19 18 19 18 19 21 21 22 22 22 22 21 21 21 21 21 21 21 20 20 20 19 19 18 18 17 17 16 16 16 15 15 14 14 13 13 13 13 12 12 12 12 12 12 12
25 23 21 19 18 18 18 19 20 22 21 21 22 22 22 22 22 22 22 22 21 21 21 21 20 20 19 19 18 18 17 17 16 16 15 15 14 14 13 13 13 12 12 12 12 12 12 12 11
24 23 20 19 19 19 19 19 19 21 21 21 21 22 22 22 22 22 22 22 22 22 21 21 21 20 19 19 18 18 18 17 17 16 16 15 15 14 13 13 13 13 12 12 12 12 12 11 11
24 23 20 18 18 18 18 19 20 20 20 20 21 23 23 23 23 23 23 23 22 22 22 21 21 20 20 19 19 19 18 18 17 17 16 16 15 14 14 13 13 13 12 12 12 12 11 11 11
23 23 20 20 20 18 18 19 22 21 21 21 22 23 24 24 24 24 24 23 23 22 22 21 21 21 20 20 19 19 18 18 17 17 17 16 15 14 14 13 13 13 12 12 12 11 11 11 11
Wind_Speed
11 8 3 0 1 2 1 3 2 3 3 2 3 6 5 3 4 6 6 17 20 15 17 19 20 20 19 19 19 19 18 18 17 17 17 16 16 15 14 13 13 12 12 11 10 10 9 9 8
8 5 2 1 1 0 3 3 3 3 0 3 4 5 6 7 9 11 9 17 19 17 16 18 20 20 19 19 19 19 18 18 17 17 16 15 15 14 13 12 12 11 11 10 10 9 9 8 7
6 5 2 1 2 4 4 4 6 1 7 5 3 3 4 7 10 6 12 18 16 14 16 19 21 20 20 19 19 18 18 17 17 16 15 15 14 13 12 11 10 10 10 9 9 8 8 7 6
3 2 1 0 6 6 6 6 5 5 6 7 2 4 4 4 6 13 19 18 17 12 16 19 21 21 20 20 19 18 18 17 16 16 15 14 13 12 11 10 9 9 9 8 8 8 7 6 5
2 3 0 3 5 5 5 5 5 7 5 5 6 6 5 6 19 21 19 18 17 13 14 18 21 20 20 20 19 18 17 16 16 15 14 13 12 11 10 9 9 8 8 7 7 7 7 5 4
2 2 1 4 5 5 3 4 11 16 10 8 7 5 4 8 17 18 18 16 16 15 14 17 20 20 19 19 18 17 16 15 14 13 12 11 10 9 9 8 8 8 7 7 7 7 7 6 4
3 1 2 5 5 5 5 8 10 13 11 6 4 3 1 5 9 12 15 15 14 14 13 13 16 17 18 18 17 16 15 13 12 11 9 8 8 7 7 7 8 7 7 8 8 8 8 8 6
5 2 4 5 4 3 3 7 9 11 8 6 4 5 4 5 8 11 13 14 13 11 10 10 12 14 14 14 15 14 13 11 9 8 7 5 4 4 5 7 8 8 8 9 9 9 9 9 8
3 2 4 5 3 2 3 7 5 5 7 5 5 7 8 6 12 13 13 12 10 10 8 8 9 11 12 11 11 11 10 8 7 5 4 3 1 1 4 7 9 10 9 9 9 10 9 9 9
5 3 7 5 3 0 5 8 7 7 7 4 5 5 6 8 11 14 15 13 11 11 8 8 8 8 9 9 9 8 7 7 6 5 5 4 3 3 2 2 5 7 8 9 9 9 9 9 8
6 7 6 3 1 5 7 7 6 10 5 7 11 12 11 10 8 12 14 14 12 11 9 7 7 8 8 7 8 7 7 8 8 8 8 8 7 6 6 4 3 3 3 4 5 6 8 8 8
4 4 1 2 5 7 7 5 6 4 6 9 12 11 10 11 9 11 14 14 12 11 10 8 8 8 8 8 7 8 7 7 7 9 10 9 6 6 6 5 4 3 2 2 3 3 6 6 7
1 1 2 6 10 10 12 9 7 3 4 6 8 8 6 6 6 7 12 14 14 12 9 8 9 9 7 7 6 8 7 8 9 10 11 11 7 4 5 6 6 5 2 1 1 2 3 3 4
2 0 3 6 8 6 10 7 5 2 5 5 4 5 4 5 7 9 11 13 13 12 10 8 8 7 8 6 5 6 8 10 10 9 10 12 9 7 5 5 5 6 5 2 1 1 1 1 1
2 3 5 3 5 4 8 6 3 4 6 4 5 4 5 6 8 10 11 13 12 11 10 9 8 7 8 7 6 7 9 10 9 8 10 11 10 8 6 4 4 6 8 6 4 3 2 1 1
4 4 3 3 2 3 7 3 3 5 8 7 7 6 6 4 6 8 10 11 10 10 9 8 9 8 8 6 6 6 9 10 8 9 9 9 10 10 8 4 4 8 9 7 3 4 3 3 2
4 2 3 4 1 3 5 3 5 6 8 7 7 7 9 6 6 7 9 10 10 10 9 8 8 8 7 6 6 7 8 8 8 8 8 8 9 10 8 5 6 9 7 5 4 4 3 3 4
6 3 2 3 1 3 4 2 4 6 7 7 6 8 10 10 8 9 9 9 9 8 8 8 7 7 7 5 5 4 4 3 6 6 7 7 7 9 8 6 7 8 5 5 5 4 4 3 3
6 3 2 2 2 2 3 3 4 5 6 7 6 7 8 9 8 8 9 10 9 9 9 8 7 6 5 4 4 3 3 3 3 4 7 7 7 8 7 4 5 5 5 5 5 4 5 4 4
4 2 1 0 1 3 1 2 3 5 6 8 9 10 9 8 8 9 10 10 9 9 9 8 8 7 6 4 4 3 3 3 3 3 5 7 7 7 6 4 3 4 4 6 6 5 3 4 4
0 4 5 4 2 4 3 3 2 3 4 5 8 8 9 12 12 11 11 10 10 10 10 10 9 8 7 6 3 3 3 3 2 2 2 4 6 6 7 6 4 3 4 4 4 4 4 3 3
1 4 9 7 5 1 1 2 5 2 3 6 8 9 10 11 11 11 12 12 12 12 11 10 10 9 7 7 6 5 4 3 3 3 3 3 4 6 7 7 5 3 3 3 2 3 2 3 3
4 3 6 5 5 4 4 1 7 1 3 7 9 11 11 12 13 13 13 14 14 13 12 11 10 9 8 8 8 7 5 4 3 3 3 2 2 3 7 7 5 3 2 2 2 2 2 1 1
9 6 6 5 5 4 2 0 6 4 6 7 10 11 12 13 14 13 13 13 13 12 11 11 11 10 9 9 8 8 8 7 5 3 3 1 1 1 5 7 5 4 3 2 1 0 1 1 1
5 5 4 6 5 2 3 2 8 8 7 9 12 13 12 13 13 13 13 13 14 14 13 12 12 11 10 10 9 9 9 8 7 5 4 3 2 2 5 5 4 3 4 3 2 1 2 1 1
3 7 5 3 3 3 3 4 8 9 7 9 11 12 12 13 14 16 16 15 15 16 15 14 14 11 10 10 9 8 9 6 5 5 5 5 4 4 5 5 5 5 5 4 3 2 3 2 2
2 2 6 7 3 2 4 6 8 5 3 7 10 12 14 15 16 17 16 15 15 15 15 16 15 11 11 10 9 8 9 8 7 6 5 4 4 4 6 6 6 6 5 5 4 4 4 4 4
4 4 5 5 5 2 3 5 5 6 6 7 9 12 14 15 16 16 15 15 14 14 13 13 14 13 11 10 10 9 8 8 8 7 6 6 5 5 6 6 6 6 6 6 5 5 5 5 5
2 2 3 4 6 6 4 7 8 12 11 11 12 14 15 16 17 16 15 14 13 12 12 12 12 11 10 11 9 9 8 8 8 7 7 7 6 6 7 7 7 7 7 6 6 7 7 7 6
3 4 5 3 2 5 5 7 8 12 12 12 13 13 14 15 15 15 14 12 11 12 13 13 13 12 12 11 10 9 9 8 8 8 8 7 7 7 7 7 7 7 7 7 7 7 7 7 8
Wind_Direction
172 165 167 82 44 39 259 233 222 275 296 303 152 135 125 94 129 139 124 135 133 134 135 132 129 128 129 131 131 130 129 129 128 128 127 127 126 126 125 124 123 120 117 114 110 106 104 101 99
160 169 166 46 100 109 256 225 225 271 17 41 62 83 80 66 83 108 116 133 132 130 130 130 127 126 128 129 130 130 130 130 131 131 131 131 132 131 131 130 130 128 125 123 119 115 111 108 103
179 185 145 136 220 205 226 222 217 96 42 13 5 41 66 103 110 113 132 135 128 125 127 130 126 124 124 125 126 127 128 130 130 131 132 133 135 136 136 136 136 135 134 133 129 125 122 118 111
168 125 61 140 255 251 238 232 211 140 51 20 51 42 29 93 109 128 136 133 125 122 126 129 125 123 123 123 124 126 127 129 131 132 134 136 137 138 140 141 141 142 142 140 140 139 136 132 126
106 106 76 284 263 261 254 225 161 107 90 50 47 54 25 55 116 130 135 134 129 126 126 128 126 125 124 125 125 126 128 130 132 134 137 139 140 142 145 148 150 151 151 153 153 154 154 152 152
68 100 38 294 291 306 3 106 107 93 98 80 70 44 17 106 124 136 136 134 133 132 129 131 131 130 129 128 129 130 131 133 136 138 141 144 146 150 155 161 163 166 166 165 169 169 170 174 183
150 110 259 286 310 345 30 79 91 101 93 74 93 43 20 115 125 134 133 131 132 133 131 132 134 133 133 134 135 136 137 138 140 144 147 151 155 163 171 178 180 180 180 180 183 186 187 191 199
170 83 321 311 318 336 60 88 93 98 108 138 125 139 186 159 138 132 132 130 131 134 135 135 135 134 135 138 140 140 140 140 143 146 149 153 163 181 202 203 198 198 197 196 197 201 202 201 205
146 68 280 270 275 274 113 107 99 102 129 158 177 177 164 145 138 133 133 128 135 139 140 138 137 138 138 141 142 140 137 133 133 137 137 130 135 221 240 227 217 213 209 207 206 209 211 211 214
136 176 240 234 238 146 107 120 136 129 118 128 150 144 126 132 143 144 145 143 144 148 149 145 143 147 148 144 135 130 118 106 99 89 87 75 53 25 351 271 235 226 221 220 218 217 217 215 217
181 205 241 291 45 98 102 112 133 136 143 170 161 158 154 142 148 148 146 144 145 145 137 128 135 143 142 129 129 119 108 101 93 81 78 72 57 42 31 20 346 297 251 233 233 228 222 213 211
214 246 209 63 55 78 101 113 111 145 182 172 160 159 156 150 150 153 143 137 133 125 124 122 121 122 123 122 118 115 111 107 95 78 74 70 56 41 27 16 3 355 316 251 237 229 225 217 214
336 304 84 91 83 92 100 104 111 100 140 144 147 142 145 151 148 141 139 133 127 122 124 126 122 121 120 115 119 117 117 112 100 82 73 72 62 41 25 17 17 11 2 244 223 228 225 222 223
288 45 77 96 97 94 107 110 102 137 144 142 152 152 153 152 146 140 136 132 131 129 131 130 125 123 118 116 115 120 121 116 104 93 81 74 67 52 35 24 20 14 11 359 269 253 239 244 247
332 12 11 45 87 118 107 78 116 169 147 161 194 186 167 149 144 147 147 142 139 137 136 135 129 119 116 118 123 125 127 122 114 106 90 81 73 60 49 31 13 8 15 21 28 24 35 27 341
359 16 337 324 56 117 103 116 166 170 151 165 186 171 156 165 151 148 149 140 139 138 135 139 131 123 121 123 126 127 128 127 127 115 99 89 78 66 56 39 17 18 30 31 41 42 44 31 13
353 306 283 312 359 102 105 159 174 168 157 160 174 169 161 174 159 152 151 146 144 142 139 134 132 133 130 127 124 123 126 130 138 126 113 101 85 72 66 51 31 32 34 24 27 40 43 26 355
258 243 247 250 273 110 121 175 169 162 164 169 179 173 165 167 166 162 157 151 144 141 140 140 139 139 129 116 103 97 101 121 143 142 135 119 99 82 76 62 41 38 35 22 19 26 29 27 347
219 191 223 236 207 117 146 180 187 168 169 177 181 179 171 167 163 159 161 156 147 143 144 151 148 152 135 123 124 124 138 152 157 167 152 137 119 101 89 73 53 45 42 28 21 24 22 9 4
203 152 102 26 116 105 106 246 216 184 186 187 185 187 180 173 167 165 167 163 160 159 161 163 163 161 155 153 158 160 152 161 166 167 161 156 141 131 116 101 82 60 48 34 34 41 35 5 20
202 162 164 174 99 65 86 345 262 217 183 191 192 196 187 182 175 173 173 174 169 171 176 176 178 174 171 162 135 102 80 72 82 118 178 192 168 153 136 125 109 82 72 53 47 55 64 23 358
225 180 153 146 124 13 54 304 290 207 191 198 196 194 189 184 179 181 179 180 182 185 185 182 182 181 178 163 150 147 148 156 179 180 195 211 192 173 157 142 127 109 95 78 50 72 72 68 14
158 116 106 117 110 63 15 24 296 242 212 217 203 195 192 188 186 188 187 188 189 190 188 187 184 185 182 171 161 150 147 158 160 149 161 200 234 192 171 155 144 131 121 115 82 58 52 76 83
129 89 58 52 67 38 310 92 288 233 214 210 204 199 191 190 191 192 193 191 193 194 191 186 184 189 183 174 166 159 159 164 160 164 177 221 269 181 173 164 160 157 156 165 173 141 16 355 304
125 99 28 4 18 294 277 257 259 247 222 199 198 199 194 191 191 194 196 195 196 196 195 190 185 189 184 177 174 172 171 172 176 184 189 194 190 178 183 170 175 181 191 198 197 214 266 281 274
183 136 157 204 203 277 317 266 265 265 234 196 190 193 193 193 194 198 202 200 198 196 194 189 187 187 183 180 181 178 171 169 173 181 178 182 190 195 191 182 190 201 205 211 201 213 243 239 256
122 182 165 132 115 99 281 288 300 286 204 181 185 187 194 196 198 201 204 201 196 193 192 189 186 184 183 182 177 178 177 174 175 179 176 181 192 190 182 188 197 209 214 218 214 225 241 245 251
144 144 81 105 143 184 261 265 248 246 221 197 194 196 200 199 200 203 203 200 197 193 188 183 180 181 181 178 180 186 186 184 181 179 187 192 196 186 183 196 205 215 222 223 220 231 238 239 250
28 55 95 130 154 153 210 257 224 214 216 209 208 204 202 201 201 202 203 199 191 182 176 176 177 174 176 181 182 179 184 186 184 189 201 203 206 204 202 206 210 217 224 225 222 231 236 238 248
181 168 139 137 237 165 177 257 249 204 210 206 212 213 207 203 201 200 196 185 177 176 174 176 178 177 181 181 177 180 183 183 188 199 209 209 211 212 210 209 212 220 224 222 219 229 232 229 236
Height
1531 1532 1534 1535 1537 1541 1541 1532 1524 1522 1522 1519 1516 1514 1514 1517 1521 1531 1529 1531 1535 1538 1541 1545 1547 1548 1550 1551 1552 1553 1554 1555 1556 1557 1558 1558 1559 1560 1561 1561 1562 1563 1564 1564 1565 1565 1566 1566 1566
1531 1533 1535 1536 1539 1547 1541 1527 1522 1520 1522 1520 1518 1516 1516 1520 1521 1524 1527 1532 1536 1539 1542 1545 1548 1549 1551 1552 1553 1554 1555 1556 1557 1557 1558 1559 1559 1560 1561 1561 1562 1563 1564 1565 1565 1566 1566 1567 1567
1531 1533 1536 1537 1540 1542 1533 1522 1518 1520 1522 1522 1520 1519 1519 1522 1524 1526 1529 1533 1537 1540 1543 1546 1548 1550 1551 1553 1554 1555 1556 1556 1557 1558 1558 1559 1560 1560 1561 1562 1562 1563 1564 1565 1566 1566 1567 1567 1568
1532 1535 1536 1540 1540 1528 1521 1516 1514 1519 1523 1523 1521 1522 1523 1526 1526 1528 1532 1535 1538 1541 1544 1547 1549 1551 1552 1553 1555 1556 1556 1557 1558 1558 1559 1559 1560 1560 1561 1562 1562 1563 1564 1565 1566 1567 1567 1568 1569
1532 1533 1538 1542 1534 1520 1513 1511 1514 1517 1524 1525 1523 1526 1527 1528 1529 1532 1535 1538 1539 1542 1545 1548 1550 1551 1553 1554 1555 1556 1557 1558 1558 1559 1559 1560 1560 1561 1561 1562 1563 1563 1564 1565 1566 1567 1567 1568 1569
1532 1533 1542 1544 1530 1517 1513 1512 1516 1520 1526 1528 1528 1529 1532 1533 1532 1535 1537 1539 1541 1543 1545 1548 1551 1552 1553 1554 1555 1557 1558 1559 1559 1559 1560 1560 1560 1561 1561 1562 1562 1563 1564 1565 1566 1566 1567 1568 1569
1532 1533 1539 1534 1528 1521 1517 1517 1521 1522 1524 1528 1528 1532 1535 1537 1537 1538 1539 1541 1543 1544 1546 1548 1551 1553 1554 1555 1556 1557 1558 1559 1559 1560 1560 1560 1560 1560 1561 1561 1562 1563 1563 1564 1565 1566 1567 1568 1569
1529 1532 1536 1533 1528 1525 1521 1520 1525 1524 1526 1529 1527 1530 1533 1536 1537 1538 1541 1542 1544 1546 1547 1549 1551 1553 1554 1556 1556 1557 1558 1559 1560 1560 1560 1560 1560 1560 1560 1561 1561 1562 1563 1563 1564 1565 1566 1567 1568
1529 1536 1540 1531 1524 1521 1520 1522 1525 1527 1525 1525 1524 1524 1528 1532 1535 1537 1541 1543 1545 1547 1548 1549 1551 1553 1555 1556 1557 1557 1558 1559 1559 1560 1560 1559 1559 1559 1560 1560 1560 1561 1561 1562 1562 1563 1564 1565 1566
1525 1536 1529 1520 1517 1518 1517 1519 1522 1525 1524 1524 1523 1525 1528 1533 1534 1535 1539 1541 1544 1546 1548 1550 1551 1553 1555 1556 1557 1557 1558 1559 1559 1560 1559 1559 1559 1558 1558 1559 1559 1560 1560 1560 1561 1562 1562 1564 1565
1521 1524 1518 1516 1515 1514 1516 1519 1521 1522 1524 1521 1519 1522 1527 1530 1533 1535 1538 1541 1544 1546 1548 1550 1551 1553 1554 1556 1557 1557 1557 1558 1559 1559 1558 1558 1558 1557 1557 1557 1557 1558 1558 1558 1559 1560 1560 1561 1563
1518 1515 1515 1516 1514 1514 1515 1518 1521 1521 1519 1518 1518 1523 1526 1528 1532 1536 1537 1541 1544 1545 1547 1549 1551 1553 1554 1556 1556 1556 1557 1558 1558 1558 1558 1557 1557 1556 1555 1555 1555 1555 1556 1556 1557 1558 1558 1559 1560
1514 1514 1514 1514 1513 1514 1515 1519 1521 1523 1521 1521 1522 1527 1528 1530 1533 1536 1538 1540 1543 1546 1548 1550 1551 1553 1554 1555 1556 1557 1557 1558 1558 1558 1557 1556 1555 1554 1554 1553 1553 1553 1554 1554 1555 1555 1556 1557 1558
1514 1513 1514 1514 1513 1516 1517 1521 1523 1525 1523 1525 1527 1528 1529 1531 1533 1536 1538 1540 1543 1545 1548 1550 1552 1553 1554 1555 1556 1557 1558 1558 1558 1558 1557 1555 1554 1553 1552 1552 1552 1552 1552 1552 1553 1553 1554 1555 1556
1512 1513 1513 1513 1512 1516 1517 1524 1525 1525 1525 1527 1528 1529 1530 1531 1532 1535 1538 1540 1543 1545 1548 1550 1552 1553 1554 1555 1556 1557 1557 1557 1557 1557 1556 1555 1554 1552 1551 1551 1551 1551 1551 1551 1551 1552 1552 1553 1553
1514 1518 1523 1516 1513 1515 1520 1531 1527 1526 1526 1528 1529 1530 1531 1532 1533 1536 1538 1541 1544 1545 1547 1549 1551 1553 1554 1555 1556 1557 1557 1557 1557 1557 1556 1554 1553 1552 1551 1550 1550 1550 1550 1550 1550 1550 1551 1551 1551
1522 1527 1525 1519 1513 1514 1519 1527 1525 1525 1525 1527 1528 1530 1531 1531 1532 1535 1539 1541 1544 1545 1547 1549 1551 1553 1554 1555 1556 1557 1557 1557 1557 1556 1555 1554 1553 1551 1550 1549 1549 1548 1548 1548 1548 1549 1549 1549 1550
1527 1526 1523 1522 1515 1514 1519 1522 1523 1524 1525 1526 1528 1529 1529 1530 1533 1536 1539 1541 1543 1545 1547 1550 1551 1553 1554 1555 1556 1556 1556 1556 1556 1555 1555 1554 1552 1551 1550 1549 1548 1547 1547 1547 1547 1547 1548 1548 1548
1513 1516 1520 1518 1512 1515 1518 1520 1520 1522 1524 1525 1527 1528 1529 1532 1535 1537 1539 1541 1543 1545 1547 1549 1551 1553 1554 1555 1555 1556 1556 1556 1555 1555 1554 1553 1552 1550 1549 1548 1547 1546 1545 1545 1545 1545 1546 1546 1545
1509 1516 1519 1517 1512 1515 1520 1519 1517 1520 1521 1522 1523 1525 1529 1532 1534 1536 1538 1540 1542 1545 1547 1549 1550 1552 1553 1554 1555 1555 1555 1555 1554 1554 1553 1552 1551 1550 1548 1547 1546 1545 1545 1544 1544 1544 1544 1544 1544
1510 1514 1516 1517 1515 1516 1521 1525 1520 1519 1520 1521 1522 1524 1526 1528 1531 1534 1537 1540 1542 1544 1546 1547 1549 1550 1552 1553 1554 1554 1554 1554 1553 1552 1552 1551 1550 1549 1548 1547 1546 1545 1544 1544 1543 1543 1543 1543 1543
1515 1505 1506 1511 1522 1531 1527 1539 1524 1519 1520 1520 1521 1522 1523 1526 1529 1532 1535 1538 1540 1542 1544 1546 1547 1549 1550 1551 1552 1552 1552 1552 1551 1551 1550 1550 1549 1548 1548 1547 1546 1545 1544 1543 1543 1542 1542 1542 1542
1508 1504 1508 1514 1524 1534 1532 1538 1531 1520 1521 1519 1519 1520 1522 1524 1527 1530 1533 1535 1538 1540 1542 1544 1546 1547 1548 1549 1550 1550 1549 1549 1549 1549 1548 1548 1548 1547 1546 1546 1545 1544 1544 1543 1542 1541 1541 1540 1540
1502 1511 1517 1524 1531 1545 1538 1539 1534 1522 1516 1514 1515 1517 1519 1522 1525 1528 1531 1533 1535 1538 1540 1541 1543 1545 1546 1547 1547 1547 1547 1547 1547 1547 1546 1546 1545 1545 1545 1545 1544 1543 1543 1542 1541 1540 1539 1539 1539
1503 1521 1539 1543 1552 1550 1535 1536 1530 1509 1506 1507 1510 1512 1516 1519 1522 1525 1527 1530 1532 1534 1536 1538 1540 1542 1543 1544 1544 1544 1545 1544 1544 1544 1544 1544 1543 1543 1543 1543 1543 1542 1541 1540 1540 1539 1538 1538 1537
1502 1515 1537 1548 1554 1549 1537 1537 1519 1501 1500 1502 1505 1509 1512 1516 1518 1521 1523 1526 1528 1530 1532 1535 1537 1538 1540 1541 1542 1542 1542 1542 1542 1542 1541 1541 1541 1541 1541 1541 1541 1540 1540 1539 1538 1537 1537 1536 1536
1502 1509 1512 1533 1542 1550 1542 1530 1512 1499 1499 1500 1503 1506 1509 1512 1514 1517 1519 1522 1524 1526 1528 1531 1533 1535 1537 1538 1539 1539 1539 1539 1539 1539 1539 1539 1539 1539 1539 1539 1538 1538 1537 1537 1536 1535 1535 1534 1533
1494 1500 1516 1530 1546 1552 1544 1535 1526 1507 1502 1500 1501 1503 1504 1507 1510 1513 1515 1518 1520 1523 1525 1528 1530 1532 1533 1535 1535 1536 1536 1536 1536 1536 1536 1536 1537 1536 1536 1536 1536 1535 1535 1534 1533 1533 1532 1531 1531
1499 1503 1511 1524 1530 1545 1550 1535 1502 1499 1497 1497 1497 1497 1500 1503 1505 1508 1511 1514 1517 1519 1522 1524 1526 1528 1530 1531 1532 1533 1533 1533 1534 1534 1534 1534 1533 1533 1533 1533 1532 1532 1531 1530 1530 1529 1528 1528 1527
1496 1500 1509 1524 1526 1529 1536 1526 1487 1487 1487 1489 1491 1493 1495 1497 1500 1504 1507 1510 1513 1516 1518 1520 1522 1524 1526 1528 1529 1529 1530 1530 1530 1531 1531 1530 1530 1530 1529 1529 1528 1528 1527 1526 1525 1525 1524 1523 1522